Theta_e
347 354 356 360 366 362 344 345 346 347 347 345 347 346 351 350 350 355 351 352 352 348 332 333 335 335 334 334 336 338 339 341 341 340 339 338 335 332 338 338 338 338 337 338 337 339 341 338 329
350 355 358 360 366 343 344 344 346 347 346 343 346 347 348 350 348 350 350 353 351 348 340 332 332 332 332 333 335 336 336 337 337 337 336 336 337 333 337 335 339 332 338 337 339 341 332 326 341
357 359 357 363 342 343 345 345 344 343 344 345 346 346 347 347 348 350 349 352 351 349 347 334 332 332 332 333 334 335 336 336 337 337 336 339 341 339 333 338 339 339 337 338 338 337 330 325 337
360 360 358 352 341 342 343 340 341 343 343 343 347 347 346 347 348 350 348 351 348 349 349 337 334 333 332 333 334 335 336 337 338 337 340 342 341 342 342 340 338 338 334 338 336 330 327 327 329
358 357 361 342 342 343 342 338 340 341 342 343 347 349 349 349 350 349 348 347 348 350 349 341 337 335 333 333 333 334 335 338 342 338 338 337 340 340 341 341 340 339 335 339 341 330 333 333 333
359 356 356 343 342 343 342 339 340 342 342 344 346 349 350 349 348 348 347 349 352 356 353 345 340 338 336 335 334 333 334 336 338 338 338 337 339 338 339 341 340 341 339 334 341 332 339 335 335
357 358 348 343 343 344 342 340 339 338 340 343 345 349 348 348 348 348 347 349 350 355 350 341 341 341 340 339 336 335 336 339 340 340 339 338 338 339 339 339 340 339 340 337 333 342 332 331 332
350 348 351 346 346 345 344 342 340 337 341 343 346 348 348 349 348 348 348 348 348 354 353 351 339 341 340 341 340 339 339 340 340 340 340 340 339 338 338 339 340 339 339 340 336 332 341 332 333
347 349 348 342 342 345 344 344 344 342 342 341 343 346 347 348 348 349 350 349 348 350 354 350 342 349 348 348 341 340 339 339 340 340 339 338 339 343 345 347 344 346 338 339 340 335 342 332 335
345 346 347 339 340 344 343 344 344 347 341 344 344 346 347 348 350 351 351 350 349 347 351 352 350 350 350 352 347 343 339 338 340 347 348 346 346 349 350 347 346 343 339 336 338 339 339 333 333
338 342 338 339 338 339 343 343 344 345 345 346 346 347 347 349 351 351 351 350 350 349 348 353 352 351 348 352 349 346 348 350 349 348 348 341 348 348 347 345 345 346 339 336 339 339 339 340 341
337 338 338 337 336 337 340 340 344 342 345 344 347 347 346 349 350 351 350 349 350 350 350 350 350 350 349 349 349 345 344 352 348 346 339 337 343 343 345 349 345 346 345 345 348 347 346 346 344
337 337 337 337 337 336 338 338 340 341 344 343 347 347 347 348 349 350 350 349 349 351 351 351 351 351 348 351 349 350 350 347 337 336 335 337 342 347 347 345 348 347 348 346 345 348 346 347 346
334 336 336 336 336 337 339 339 339 340 342 345 345 346 347 347 348 349 349 350 349 351 352 353 353 350 348 347 350 349 350 350 349 339 337 341 338 339 345 345 345 347 344 346 343 348 346 346 345
334 335 335 336 337 339 340 340 339 340 342 346 345 346 348 347 347 348 349 350 350 351 352 354 354 349 343 346 347 349 348 348 349 347 343 345 343 339 339 345 342 346 343 340 340 342 346 348 345
334 334 334 335 337 341 339 342 342 341 342 345 347 347 347 348 348 348 348 351 351 352 353 353 356 355 350 348 350 347 347 347 347 346 345 345 342 343 341 341 345 345 344 340 341 343 343 343 347
332 333 334 335 340 341 342 341 342 341 341 345 347 348 347 348 348 348 349 350 353 352 353 354 356 356 355 355 351 349 348 344 347 346 348 348 347 345 342 341 344 346 344 341 343 344 343 342 342
332 333 334 335 340 341 341 338 340 340 339 341 343 349 349 348 348 348 349 350 352 353 353 355 357 358 357 356 351 350 342 347 348 350 348 349 346 345 343 341 343 346 344 341 341 343 344 344 345
330 331 332 334 335 336 336 335 336 337 336 336 343 347 350 350 349 349 349 349 351 353 356 357 356 354 355 357 352 350 341 344 348 351 349 347 340 344 343 343 342 345 343 339 339 341 344 347 347
330 330 331 332 333 333 333 333 335 335 337 336 336 343 348 350 350 350 349 349 350 353 355 359 351 347 352 354 348 345 343 343 348 351 350 348 345 345 343 344 341 343 341 339 339 338 338 340 342
329 330 331 331 332 332 332 332 335 335 336 336 336 337 343 348 349 351 350 349 350 353 356 358 349 349 354 352 340 345 342 335 343 348 348 346 343 345 346 341 342 341 340 340 340 339 338 340 340
327 329 330 329 329 329 330 330 339 337 339 338 336 337 337 347 349 352 352 351 351 353 358 358 349 352 346 340 337 340 350 351 352 351 351 348 348 344 346 346 342 340 341 341 341 341 339 339 340
328 329 328 329 329 329 329 330 333 339 342 337 338 338 338 342 347 352 354 353 352 354 360 356 354 351 339 336 340 353 350 351 352 353 351 347 348 345 345 344 345 343 343 343 341 342 342 341 340
328 328 328 328 328 329 331 330 332 334 339 338 338 339 340 339 340 347 354 355 355 358 361 358 350 345 339 336 337 344 352 351 352 349 349 349 347 344 346 345 343 343 342 342 340 339 339 340 340
328 327 326 328 329 329 332 331 334 335 338 338 337 338 339 340 341 347 355 357 358 361 360 358 350 346 335 336 345 345 341 339 346 345 347 348 347 344 343 343 343 342 340 340 341 342 340 343 342
328 328 328 331 330 331 335 334 335 337 337 334 333 335 339 340 344 347 357 360 363 362 360 351 348 341 335 349 346 352 349 351 350 350 350 349 347 342 341 340 341 340 342 344 339 337 340 342 342
328 330 328 328 330 330 331 334 336 338 335 334 334 341 342 347 346 350 363 365 364 361 358 350 348 347 350 353 349 351 347 350 352 349 347 346 344 344 340 340 338 339 343 338 338 340 343 342 341
328 328 329 330 333 334 331 336 340 341 335 346 349 348 349 351 349 360 364 365 363 360 356 354 349 344 349 350 348 354 351 351 350 348 347 345 344 340 339 339 338 340 341 340 341 342 342 339 340
329 328 328 329 332 331 333 335 340 342 345 352 352 351 352 354 353 355 358 358 359 358 356 353 352 345 340 333 350 353 350 349 349 347 345 346 344 341 339 338 337 340 340 340 338 339 338 338 339
330 329 329 330 333 333 336 335 335 339 342 349 351 351 352 355 356 355 357 358 356 357 356 356 353 343 344 349 352 349 351 349 348 347 342 341 339 341 342 341 342 341 341 341 340 340 342 338 341
Wind_Speed
6 1 1 5 5 6 18 19 19 18 17 14 14 16 17 16 7 11 18 20 19 16 17 17 14 13 12 11 12 11 10 8 7 6 5 5 5 6 8 7 6 6 5 5 6 7 6 4 7
9 8 8 10 6 13 13 15 15 12 8 15 19 18 24 18 21 18 20 21 17 14 15 16 14 13 11 11 12 11 10 9 8 6 5 4 5 6 6 6 5 5 6 6 7 6 5 5 8
7 7 10 4 10 13 12 12 12 10 10 12 20 16 14 14 13 15 17 18 18 13 14 11 13 12 11 10 11 10 9 8 7 6 5 5 5 4 5 5 6 6 5 5 6 3 4 7 9
4 8 11 2 15 16 14 12 11 11 16 7 19 13 18 9 8 17 17 19 13 15 13 7 11 11 11 9 10 9 8 7 7 7 5 5 4 4 4 4 5 5 4 4 5 3 6 9 9
8 12 11 12 15 14 9 13 18 14 13 15 18 13 12 11 15 19 15 11 20 15 10 6 9 10 10 10 8 8 7 6 5 5 4 4 5 4 5 4 3 4 4 4 4 4 6 9 9
15 13 9 11 15 13 7 16 14 14 12 14 16 16 13 13 16 16 14 13 14 17 8 9 10 10 10 9 9 8 7 6 5 4 3 3 5 3 2 2 3 3 4 4 3 5 7 8 8
20 7 2 7 10 14 3 11 11 14 12 9 14 14 11 13 15 15 12 11 13 18 11 8 10 11 11 10 9 8 7 6 5 4 4 4 5 3 2 2 3 3 4 5 5 6 5 7 8
18 7 26 10 7 13 6 11 12 15 11 8 4 9 15 18 17 16 13 11 11 13 8 6 11 13 11 11 10 9 7 6 5 4 4 4 4 4 3 2 3 4 4 4 4 6 6 6 10
13 7 9 13 11 9 6 6 12 14 5 10 7 12 21 20 20 17 15 14 13 10 13 7 6 9 7 9 9 9 8 8 8 5 3 4 4 2 3 3 4 5 5 6 6 7 7 7 8
9 10 20 7 6 12 21 2 13 32 25 10 11 18 21 22 20 18 17 15 15 12 11 10 7 8 9 8 6 5 9 8 3 3 3 7 4 7 10 10 8 5 7 7 8 7 9 9 8
14 8 8 7 8 11 21 11 16 32 15 15 18 20 21 22 20 17 15 14 14 13 12 10 10 6 7 12 10 5 7 6 7 7 9 8 13 10 6 9 8 8 7 8 4 6 8 6 9
7 15 11 13 2 6 7 5 6 2 10 11 23 24 24 23 21 20 18 17 16 15 14 13 13 12 13 9 9 7 8 15 17 14 8 10 10 12 12 10 11 8 4 4 12 4 1 2 6
11 13 13 11 17 3 5 12 5 4 7 10 22 22 23 23 21 20 17 18 16 17 16 14 16 16 17 15 13 10 10 11 16 13 9 5 3 9 11 15 6 10 10 8 13 11 12 11 9
23 21 17 20 20 13 8 11 10 11 8 13 18 20 22 21 21 20 19 18 18 17 17 18 19 17 18 21 18 16 17 12 14 15 16 14 7 11 15 14 16 12 18 14 14 11 11 6 8
19 18 16 21 19 11 2 12 0 8 9 14 17 18 21 21 22 22 21 20 19 20 19 20 18 15 14 14 16 14 16 17 16 15 13 16 14 14 17 20 19 20 20 18 15 15 10 10 8
20 19 16 21 15 7 7 6 3 19 17 17 19 18 20 21 21 22 21 21 21 21 22 22 16 16 13 13 13 15 14 12 13 16 14 14 13 15 20 21 18 18 16 16 16 16 19 18 14
16 17 20 20 11 8 10 5 10 20 20 18 19 22 22 22 22 24 23 23 23 23 24 23 19 18 15 17 16 12 14 8 9 11 8 13 11 14 15 20 23 16 15 15 13 14 16 16 15
19 19 21 16 9 11 15 12 4 15 15 20 20 25 25 26 26 24 24 23 24 25 26 24 22 17 18 18 14 12 13 9 6 5 6 13 16 10 11 18 22 22 21 18 13 13 13 13 11
18 20 21 18 16 15 11 12 12 17 16 16 22 27 27 27 27 26 26 25 26 28 24 26 24 23 23 20 17 14 13 12 7 5 12 16 13 7 6 12 23 23 25 20 17 13 12 11 7
18 19 17 19 15 16 16 19 11 18 16 11 16 23 31 26 27 32 30 29 28 30 29 25 24 22 21 19 14 16 15 11 8 7 14 12 8 8 5 7 23 23 22 20 19 20 15 13 12
18 15 17 16 17 16 16 19 11 17 20 22 15 10 25 27 27 34 37 34 31 31 30 29 22 20 19 14 12 16 13 10 12 11 10 7 6 6 3 4 13 20 21 20 20 22 19 17 13
20 15 19 18 15 12 14 14 15 17 14 15 9 9 9 26 23 33 39 38 35 31 31 28 20 22 15 13 9 8 5 8 7 8 7 8 8 7 5 5 10 14 15 16 18 16 19 17 17
17 15 18 16 15 16 16 10 14 5 16 9 10 15 3 4 22 30 39 39 33 29 31 26 23 23 12 7 7 9 6 7 8 7 8 11 11 9 8 8 11 10 12 12 13 14 16 16 17
13 16 18 13 15 13 16 15 14 15 7 10 11 8 9 8 6 22 38 37 31 32 33 25 27 22 12 9 8 16 16 11 10 10 8 12 12 12 12 13 11 9 9 9 10 10 12 14 16
16 17 12 13 12 13 19 17 12 9 14 13 12 12 7 4 4 12 33 34 31 33 27 27 31 21 10 10 5 5 9 14 13 11 12 12 11 12 15 12 11 9 9 8 8 8 10 12 15
19 18 13 14 14 15 15 13 12 19 13 22 9 6 6 4 4 11 30 28 29 25 25 24 28 16 9 3 3 4 5 7 3 4 7 8 6 11 11 11 12 11 8 10 11 12 10 9 9
19 16 16 18 19 14 13 6 7 9 6 7 9 17 12 13 7 14 26 25 23 18 16 21 19 5 4 0 5 6 6 6 5 6 5 4 11 10 12 11 9 8 6 4 3 7 8 8 9
21 15 14 12 16 16 15 13 6 15 10 17 15 17 14 12 12 19 16 17 17 17 16 21 11 8 8 6 6 6 7 7 8 5 5 4 8 9 10 9 8 5 5 4 5 2 3 4 5
15 17 17 18 12 12 13 3 9 11 10 13 14 17 17 16 15 15 15 16 17 17 19 22 15 10 14 17 12 9 7 8 7 6 9 8 6 8 8 6 7 6 4 3 5 8 4 4 5
17 17 20 12 13 13 13 7 10 3 5 18 17 18 19 18 16 17 18 16 17 17 20 21 18 18 18 14 12 11 13 10 11 10 8 8 8 9 8 5 6 6 7 9 6 2 5 4 3
Wind_Direction
174 228 151 277 262 232 47 50 45 41 48 52 54 66 56 52 110 110 120 133 132 138 149 147 147 141 136 133 134 135 131 132 128 126 111 101 84 94 97 97 99 92 86 103 113 111 114 114 114
200 234 235 279 259 65 60 61 59 45 13 63 43 82 72 72 96 109 117 132 128 136 140 147 145 141 140 136 134 135 132 134 134 129 117 106 102 97 106 104 101 91 100 104 115 112 113 123 132
167 232 268 234 48 62 68 72 80 72 47 79 78 51 73 104 118 120 125 135 130 134 147 142 142 143 142 139 133 135 132 133 134 129 122 116 108 110 111 110 102 103 111 115 119 124 127 140 151
262 234 244 322 69 63 58 58 63 90 88 79 106 82 85 80 110 130 135 137 123 138 171 161 150 150 149 145 144 138 138 137 135 134 126 109 116 120 108 119 124 115 121 123 114 113 135 136 142
265 271 271 91 81 89 89 77 69 82 58 56 95 108 99 95 115 133 140 138 147 143 178 165 158 159 157 154 155 150 149 145 143 141 134 127 131 125 113 115 136 133 125 138 123 117 135 145 147
262 248 286 97 99 78 85 101 84 99 105 120 116 103 102 125 131 139 142 151 144 157 170 165 168 167 166 165 166 170 164 165 158 161 153 143 159 142 141 146 144 153 156 153 139 140 158 163 162
261 234 157 6 34 98 111 69 100 75 88 81 109 112 129 147 145 146 146 150 146 152 168 152 180 172 173 174 176 181 180 179 174 176 184 200 207 212 199 192 203 185 181 166 185 172 174 179 174
301 342 338 130 194 113 129 104 58 89 88 104 168 138 156 151 154 152 152 151 148 156 140 213 186 182 176 176 180 187 192 191 189 195 208 219 247 258 242 248 230 218 205 195 184 180 184 193 188
270 293 245 28 62 73 224 167 97 71 104 90 61 109 144 152 156 155 159 167 170 183 175 204 211 188 177 183 184 192 196 202 206 206 225 258 255 230 304 257 235 261 243 215 204 190 195 201 199
224 293 277 70 9 165 32 59 75 122 303 128 103 117 141 154 160 166 173 175 177 180 187 194 182 187 189 193 220 220 199 200 155 203 320 314 216 231 219 251 246 277 264 238 222 210 208 206 196
267 257 351 36 47 340 165 199 138 148 209 199 150 147 157 163 170 174 180 180 179 183 184 199 178 199 158 178 208 272 195 202 231 192 226 282 219 225 222 236 266 274 262 248 223 250 236 227 182
270 285 324 296 85 279 288 334 196 102 138 132 153 161 169 173 178 181 187 178 182 183 189 190 196 193 188 202 230 257 221 201 225 216 238 322 221 222 208 223 254 243 246 185 238 259 344 172 196
296 270 297 309 300 195 282 287 267 279 151 133 146 164 177 180 180 188 187 181 184 183 188 189 198 210 199 190 205 228 241 238 234 219 254 273 227 232 238 209 215 235 217 217 223 217 215 226 211
297 306 308 292 276 260 228 276 224 225 183 141 155 173 183 187 185 190 187 183 182 187 189 197 208 213 205 200 201 207 211 247 257 248 249 262 269 242 235 221 217 224 232 232 216 211 215 232 239
282 288 277 269 259 242 202 264 315 297 178 161 171 181 187 192 189 193 190 187 186 188 191 203 210 219 208 209 209 221 220 217 241 253 259 263 268 267 246 229 219 217 234 235 222 220 210 221 226
285 280 272 269 248 240 221 184 157 234 215 185 178 186 196 198 197 192 191 188 189 188 192 202 198 221 221 215 219 216 231 231 249 258 269 269 278 272 249 232 216 228 227 225 233 220 218 207 230
254 261 263 264 180 228 233 233 207 232 218 178 188 185 193 196 203 194 191 190 192 193 194 197 200 212 232 226 226 240 226 247 243 260 273 281 284 294 249 226 206 221 227 220 223 214 220 223 228
251 244 242 248 172 203 251 255 274 297 210 208 200 184 189 191 202 199 192 192 195 195 200 201 198 210 229 236 240 249 308 256 243 238 275 257 289 290 242 219 203 212 226 218 221 220 217 226 227
260 274 288 296 306 320 312 288 286 281 272 274 176 182 185 195 199 198 193 194 193 194 197 197 205 212 225 228 246 234 255 227 225 195 231 267 293 311 258 232 209 210 222 218 223 220 220 226 234
259 265 269 274 288 290 287 282 284 277 284 290 267 184 184 190 193 189 190 191 197 197 199 206 213 220 222 231 242 247 240 231 188 199 247 266 275 300 276 223 198 214 217 215 224 230 240 244 235
260 267 281 279 280 283 288 277 264 262 268 246 244 236 189 182 187 183 182 188 196 197 197 205 218 219 227 236 252 253 262 230 228 237 255 290 263 270 292 222 207 216 223 231 236 242 240 246 252
253 249 253 260 268 268 270 275 260 252 258 240 248 124 269 173 182 179 179 188 192 194 194 208 221 218 226 236 261 237 228 241 234 228 249 255 273 250 247 237 225 219 233 234 236 231 232 244 260
264 266 271 284 278 273 267 262 273 186 243 206 128 125 88 127 173 174 178 187 186 191 188 205 215 214 228 252 233 235 267 231 266 242 239 220 247 231 239 239 232 222 220 220 220 227 243 246 245
243 267 269 262 265 264 260 257 266 265 120 354 54 84 126 158 227 176 178 181 179 190 194 199 208 210 231 218 235 214 221 225 240 235 230 233 250 231 218 232 233 222 214 220 226 233 237 242 244
240 239 245 246 244 249 246 241 241 264 153 212 164 122 136 101 243 162 166 166 171 190 191 205 207 214 245 227 243 253 240 231 236 239 239 244 246 223 210 217 217 207 201 213 228 233 243 241 245
250 232 237 239 244 247 232 243 235 233 172 158 236 162 110 146 128 158 153 155 170 185 205 191 201 219 254 229 274 199 179 184 196 208 235 243 221 223 207 216 210 205 216 236 248 231 234 235 246
244 255 244 258 274 278 280 261 350 346 153 197 146 107 107 105 137 140 135 150 162 177 207 188 204 169 152 244 284 205 206 178 199 223 256 263 194 226 204 202 215 215 234 275 182 198 237 236 253
222 244 236 234 247 271 282 283 347 187 199 109 99 106 110 126 147 134 143 158 175 186 191 184 212 216 195 182 288 249 170 176 214 227 210 216 205 206 199 196 200 198 236 213 200 269 253 268 266
204 222 249 264 244 242 245 61 92 61 74 101 118 127 138 139 155 158 165 169 174 180 185 187 204 186 153 138 237 198 169 170 198 192 160 161 167 183 186 189 170 144 218 224 227 220 230 250 260
222 224 216 244 257 268 283 327 34 161 146 127 130 147 146 150 158 165 157 162 172 177 184 190 200 183 193 214 208 193 178 181 170 191 164 158 145 132 134 144 163 172 192 200 227 191 201 253 253